Location: Unspecified
(0.0000°N, 0.0000°E)
Time: 04:00:27
(UTC+00:00)

NOSS 3-3 (C) - Visible Passes

Search period start: 22 April 2019 00:00
Search period end: 02 May 2019 00:00
Orbit: 860 x 1352 km, 63.4° (Epoch: 31 March)

Date Brightness Start Highest point End Pass type
(mag) Time Alt. Az. Time Alt. Az. Time Alt. Az.
22 Apr 5.5 03:17:47 27° E 03:17:47 27° E 03:21:19 10° NE visible
22 Apr 5.1 05:05:17 16° W 05:06:51 18° WNW 05:10:42 10° NNW visible
23 Apr 4.4 04:22:48 36° NW 04:22:48 36° NW 04:27:28 10° N visible
24 Apr 5.0 03:40:12 33° NNE 03:40:12 33° NNE 03:43:16 10° NNE visible
25 Apr 6.3 02:57:30 14° NE 02:57:30 14° NE 02:58:22 10° NE visible
26 Apr 5.8 04:02:11 14° NNW 04:02:11 14° NNW 04:03:18 10° NNW visible
27 Apr 6.3 03:19:19 11° N 03:19:19 11° N 03:19:36 10° N visible
